Flag for Turkey Weather past 2 weeks in Mersin, Turkey

Now
97 °F

Snow. Clear.


Feels Like: 105 °F
Forecast: 70 / 97 °F
Wind: 12 mph from Southwest

Location: Adana / Sakirpasa

Current Time: Aug 23, 2014 at 3:10:04 PM

Latest Report: Aug 23, 2014 at 2:20 PM


Visibility: 3 mi

Pressure: 29.68 "Hg

Humidity: 44%

Dew point: 72 °F

Location of MersinLocation

Historic Weather in Mersin — Graph

°F

Mersin temperature yesterday

Maximum temperature yesterday: 95 °F (at 12:20 PM)
Minimum temperature yesterday: 77 °F (at 4:50 AM)
Average temperature yesterday: 85 °F

Past Weeks' High & Low Weather Summary

 TemperatureHumidityPressure
High99 °F (Aug 23, 1:20 PM)94% (Aug 9, 6:50 AM)29.89 "Hg (Aug 9, 6:50 AM)
Low73 °F (Aug 15, 4:50 AM)37% (Aug 23, 1:20 PM)29.53 "Hg (Aug 17, 2:20 PM)
Average84 °F72%29.73 "Hg
* Reported Aug 8 1:20 PM — Aug 23 1:50 PM, Mersin, Weather by CustomWeather, © 2014

Note: Actual official high and low records may vary slightly from our data, if they occured in-between our weather recording intervals... More about our weather records

Advertising

Mersin weather history for previous 24 hours

 ConditionsComfort  
Time TempWeatherWind HumidityBarometerVisibility
1:50 PM
Aug 23
97 °FPassing clouds.12 mph47%29.68 "HgN/A
1:20 PM99 °FPassing clouds.9 mph37%29.68 "HgN/A
12:50 PM97 °FPassing clouds.8 mph39%29.68 "HgN/A
12:20 PM97 °FPassing clouds.7 mph39%29.71 "HgN/A
11:50 AM95 °FSunny.6 mph41%29.71 "Hg10 mi
11:20 AM91 °FPassing clouds.5 mph52%29.71 "HgN/A
10:50 AM90 °FPassing clouds.6 mph59%29.74 "HgN/A
10:20 AM88 °FScattered clouds.6 mph62%29.74 "HgN/A
9:50 AM88 °FScattered clouds.3 mph62%29.74 "HgN/A
9:20 AM86 °FScattered clouds.3 mph70%29.74 "HgN/A
8:50 AM84 °FScattered clouds.3 mph74%29.74 "HgN/A
8:20 AM84 °FScattered clouds.3 mph74%29.74 "HgN/A
7:50 AM82 °FScattered clouds.2 mph84%29.74 "Hg5 mi
7:20 AM79 °FScattered clouds.2 mph94%29.74 "Hg5 mi
6:50 AM79 °FPassing clouds.No wind89%29.74 "Hg5 mi
6:20 AM79 °FPassing clouds.3 mph89%29.74 "Hg5 mi
5:50 AM79 °FPassing clouds.No wind89%29.74 "Hg5 mi
5:20 AM79 °FPassing clouds.No wind89%29.74 "HgN/A
4:50 AM77 °FPassing clouds.No wind94%29.74 "HgN/A
4:20 AM77 °FPassing clouds.No wind94%29.74 "HgN/A
3:50 AM77 °FPassing clouds.No wind94%29.74 "HgN/A
3:20 AM77 °FPassing clouds.No wind89%29.74 "HgN/A
2:50 AM77 °FPassing clouds.2 mph89%29.74 "HgN/A
2:20 AM79 °FPassing clouds.3 mph89%29.74 "HgN/A
1:50 AM79 °FPassing clouds.3 mph89%29.74 "HgN/A
1:20 AM79 °FPassing clouds.2 mph89%29.77 "HgN/A
12:50 AM79 °FPassing clouds.2 mph89%29.77 "HgN/A
12:20 AM79 °FPassing clouds.3 mph89%29.77 "HgN/A
11:50 PM
Aug 22
81 °FPassing clouds.3 mph84%29.77 "HgN/A
11:20 PM81 °FPassing clouds.2 mph84%29.77 "HgN/A
10:50 PM81 °FPassing clouds.2 mph84%29.77 "HgN/A
10:20 PM81 °FPassing clouds.3 mph89%29.77 "HgN/A
9:50 PM81 °FPassing clouds.3 mph89%29.77 "HgN/A
9:20 PM82 °FPassing clouds.3 mph79%29.77 "HgN/A
8:50 PM82 °FPassing clouds.6 mph84%29.77 "HgN/A
8:20 PM84 °FScattered clouds.6 mph79%29.74 "HgN/A
7:50 PM84 °FPartly sunny.7 mph79%29.74 "HgN/A
7:20 PM84 °FPartly sunny.8 mph79%29.74 "HgN/A
6:50 PM86 °FScattered clouds.12 mph75%29.74 "HgN/A
6:20 PM86 °FScattered clouds.12 mph75%29.71 "HgN/A
5:50 PM88 °FSunny.13 mph70%29.71 "Hg10 mi
5:20 PM90 °FSunny.13 mph63%29.71 "Hg10 mi
4:50 PM91 °FSunny.13 mph56%29.71 "Hg10 mi
4:20 PM91 °FSunny.13 mph56%29.71 "Hg10 mi
3:50 PM93 °FPassing clouds.14 mph49%29.71 "HgN/A
3:20 PM95 °FPassing clouds.13 mph47%29.71 "HgN/A
Weather by CustomWeather, © 2014

See weather overviewHow to use our weather pages